Location: The Saddle
(36.8333°N, 80.3417°W)
Time: 13:05:22
(UTC-05:00)

S-56A Canister/Altair - Pass Details

Date: 11 December 2023
Orbit: 639 x 2488 km, 38.9° (Epoch: 02 March)

Event Time Altitude Azimuth Distance (km) Brightness Sun altitude
Rises 11:04:33 0° 261° (W) 3,691 10.9 27.9°
Reaches altitude 10° 11:07:31 10° 263° (W) 2,517 10.2 28.1°
Maximum altitude 11:13:08 78° 350° (N) 726 7.7 28.4°
Drops below altitude 10° 11:17:39 10° 77° (ENE) 2,039 9.8 28.7°
Sets 11:19:51 0° 79° (ENE) 2,932 10.6 28.8°
